,,,PA_Meas_PMT16A,,PR_Meas_QMR101_102,,RH_Meas_QMH101,,SR_Meas_QMS101,,TA_Meas_QMH101,,GenWind,,GenWind,
date,time,status,PA,status,PR,status,RH,status,SR,status,TA,status,DirAvg,status,SpdAvg,
2010-09-16, 00:00:04,VALID,1004.36,VALID,0,VALID,80.4999,VALID,0,VALID,26.644,VALID,22,VALID,1.47539,
2010-09-16, 00:01:04,VALID,1004.36,VALID,0,VALID,80.5152,VALID,0,VALID,26.6635,VALID,26,VALID,1.31914,
2010-09-16, 00:02:04,VALID,1004.38,VALID,0,VALID,80.6068,VALID,0,VALID,26.642,VALID,53,VALID,0.384766,
2010-09-16, 00:03:04,VALID,1004.39,VALID,0,VALID,80.4389,VALID,0,VALID,26.6225,VALID,13,VALID,1.44141,
2010-09-16, 00:04:04,VALID,1004.39,VALID,0,VALID,80.7517,VALID,0,VALID,26.644,VALID,40,VALID,0.876172,
2010-09-16, 00:05:04,VALID,1004.38,VALID,0,VALID,80.6296,VALID,0,VALID,26.603,VALID,3,VALID,1.59023,
2010-09-16, 00:06:04,VALID,1004.41,VALID,0,VALID,80.6525,VALID,0,VALID,26.6635,VALID,14,VALID,0.817187,
2010-09-16, 00:07:04,VALID,1004.41,VALID,0,VALID,80.767,VALID,0,VALID,26.605,VALID,22,VALID,0.905859,
2010-09-16, 00:08:04,VALID,1004.45,VALID,0,VALID,80.9806,VALID,0,VALID,26.5855,VALID,17,VALID,0.855859,
2010-09-16, 00:09:04,VALID,1004.42,VALID,0,VALID,80.8051,VALID,0,VALID,26.5251,VALID,32,VALID,1.57109,
2010-09-16, 00:10:04,VALID,1004.46,VALID,0,VALID,80.8585,VALID,0,VALID,26.5641,VALID,38,VALID,0.8875,
2010-09-16, 00:11:04,VALID,1004.46,VALID,0,VALID,81.0034,VALID,0,VALID,26.5876,VALID,16,VALID,1.06797,
2010-09-16, 00:12:04,VALID,1004.47,VALID,0,VALID,80.9729,VALID,0,VALID,26.5661,VALID,24,VALID,0.973047,
2010-09-16, 00:13:04,VALID,1004.48,VALID,0,VALID,80.8432,VALID,0,VALID,26.5855,VALID,25,VALID,1.50586,
2010-09-16, 00:14:04,VALID,1004.45,VALID,0,VALID,81.0263,VALID,0,VALID,26.5661,VALID,31,VALID,0.9125,
2010-09-16, 00:15:04,VALID,1004.48,VALID,0,VALID,80.9806,VALID,0,VALID,26.5661,VALID,36,VALID,1.4418,
2010-09-16, 00:16:04,VALID,1004.5,VALID,0,VALID,81.1179,VALID,0,VALID,26.5661,VALID,28,VALID,0.965625,
2010-09-16, 00:17:04,VALID,1004.54,VALID,0,VALID,81.0034,VALID,0,VALID,26.5446,VALID,26,VALID,0.953125,
2010-09-16, 00:18:04,VALID,1004.54,VALID,0,VALID,81.2934,VALID,0,VALID,26.5466,VALID,29,VALID,0.570703,
2010-09-16, 00:19:04,VALID,1004.53,VALID,0,VALID,81.3925,VALID,0,VALID,26.5076,VALID,28,VALID,1.19922,
2010-09-16, 00:20:04,VALID,1004.53,VALID,0,VALID,81.629,VALID,0,VALID,26.4687,VALID,45,VALID,0.766406,
2010-09-16, 00:21:04,VALID,1004.53,VALID,0,VALID,81.8426,VALID,0,VALID,26.4102,VALID,360,VALID,0.911328,
2010-09-16, 00:22:04,VALID,1004.52,VALID,0,VALID,82.0333,VALID,0,VALID,26.3907,VALID,39,VALID,0.507813,
2010-09-16, 00:23:04,VALID,1004.53,VALID,0,VALID,82.1554,VALID,0,VALID,26.3303,VALID,21,VALID,1.00156,
2010-09-16, 00:24:04,VALID,1004.53,VALID,0,VALID,82.2088,VALID,0,VALID,26.3518,VALID,18,VALID,1.70039,
2010-09-16, 00:25:04,VALID,1004.54,VALID,0,VALID,82.0715,VALID,0,VALID,26.3713,VALID,41,VALID,0.174609,
2010-09-16, 00:26:04,VALID,1004.54,VALID,0,VALID,82.1402,VALID,0,VALID,26.3518,VALID,41,VALID,0.0605469,
2010-09-16, 00:27:04,VALID,1004.54,VALID,0,VALID,82.3385,VALID,0,VALID,26.3128,VALID,41,VALID,0.00546875,
2010-09-16, 00:28:04,VALID,1004.58,VALID,0,VALID,82.6665,VALID,0,VALID,26.2933,VALID,41,VALID,0,
2010-09-16, 00:29:04,VALID,1004.57,VALID,0,VALID,83.2463,VALID,0,VALID,26.2154,VALID,92,VALID,0.640625,
2010-09-16, 00:30:04,VALID,1004.58,VALID,0,VALID,83.5973,VALID,0,VALID,26.118,VALID,92,VALID,0.330469,
2010-09-16, 00:31:04,VALID,1004.58,VALID,0,VALID,84.0703,VALID,0,VALID,25.9817,VALID,92,VALID,0.438672,
2010-09-16, 00:32:04,VALID,1004.6,VALID,0,VALID,84.5509,VALID,0,VALID,25.8434,VALID,92,VALID,0.160156,
2010-09-16, 00:33:04,VALID,1004.59,VALID,0,VALID,84.9171,VALID,0,VALID,25.746,VALID,92,VALID,0,
2010-09-16, 00:34:04,VALID,1004.59,VALID,0,VALID,85.2756,VALID,0,VALID,25.709,VALID,92,VALID,0,
2010-09-16, 00:35:04,VALID,1004.6,VALID,0,VALID,85.6952,VALID,0,VALID,25.6506,VALID,50,VALID,0.624609,
2010-09-16, 00:36:04,VALID,1004.6,VALID,0,VALID,86.008,VALID,0,VALID,25.5513,VALID,50,VALID,0.169922,
2010-09-16, 00:37:04,VALID,1004.63,VALID,0,VALID,86.4276,VALID,0,VALID,25.4558,VALID,50,VALID,0.152344,
2010-09-16, 00:38:04,VALID,1004.64,VALID,0,VALID,86.8472,VALID,0,VALID,25.3779,VALID,50,VALID,0.0472656,
2010-09-16, 00:39:04,VALID,1004.66,VALID,0,VALID,87.2896,VALID,0,VALID,25.2786,VALID,50,VALID,0.383984,
2010-09-16, 00:40:04,VALID,1004.64,VALID,0,VALID,87.755,VALID,0,VALID,25.2221,VALID,50,VALID,0.331641,
2010-09-16, 00:41:04,VALID,1004.68,VALID,0,VALID,88.3806,VALID,0,VALID,25.1034,VALID,50,VALID,0.189063,
2010-09-16, 00:42:04,VALID,1004.69,VALID,0,VALID,89.0443,VALID,0,VALID,25.0469,VALID,50,VALID,0.142969,
2010-09-16, 00:43:04,VALID,1004.68,VALID,0,VALID,91.394,VALID,0,VALID,24.9866,VALID,6,VALID,0.954297,
2010-09-16, 00:44:04,VALID,1004.69,VALID,0,VALID,95.9408,VALID,0,VALID,25.0839,VALID,17,VALID,0.973437,
2010-09-16, 00:45:04,VALID,1004.71,VALID,0,VALID,90.9973,VALID,0,VALID,25.2611,VALID,12,VALID,0.685547,
2010-09-16, 00:46:04,VALID,1004.7,VALID,0,VALID,88.9146,VALID,0,VALID,25.3565,VALID,16,VALID,0.389062,
2010-09-16, 00:47:04,VALID,1004.72,VALID,0,VALID,87.8084,VALID,0,VALID,25.4753,VALID,16,VALID,0.0539063,
2010-09-16, 00:48:04,VALID,1004.75,VALID,0,VALID,87.3736,VALID,0,VALID,25.4539,VALID,16,VALID,0.202734,
2010-09-16, 00:49:04,VALID,1004.77,VALID,0,VALID,87.1218,VALID,0,VALID,25.4363,VALID,78,VALID,0.0117188,
2010-09-16, 00:50:04,VALID,1004.78,VALID,0,VALID,87.4651,VALID,0,VALID,25.4344,VALID,79,VALID,0.317187,
2010-09-16, 00:51:04,VALID,1004.79,VALID,0,VALID,87.8771,VALID,0,VALID,25.4363,VALID,79,VALID,0.267578,
2010-09-16, 00:52:04,VALID,1004.81,VALID,0,VALID,87.8389,VALID,0,VALID,25.3565,VALID,79,VALID,0,
2010-09-16, 00:53:04,VALID,1004.8,VALID,0,VALID,87.549,VALID,0,VALID,25.3,VALID,79,VALID,0.174609,
2010-09-16, 00:54:04,VALID,1004.81,VALID,0,VALID,87.9,VALID,0,VALID,25.1618,VALID,79,VALID,0.0796875,
2010-09-16, 00:55:04,VALID,1004.84,VALID,0,VALID,88.4798,VALID,0.100563,VALID,25.0839,VALID,79,VALID,0,
2010-09-16, 00:56:04,VALID,1004.84,VALID,0,VALID,89.2732,VALID,0,VALID,25.0255,VALID,79,VALID,0,
2010-09-16, 00:57:04,VALID,1004.84,VALID,0,VALID,91.3177,VALID,0,VALID,24.9476,VALID,79,VALID,0,
2010-09-16, 00:58:04,VALID,1004.86,VALID,0,VALID,98.2829,VALID,0,VALID,24.8697,VALID,79,VALID,0,
2010-09-16, 00:59:04,VALID,1004.86,VALID,0,INVALID,111.794,VALID,0.100563,VALID,24.7919,VALID,79,VALID,0,
2010-09-16, 01:00:04,VALID,1004.89,VALID,0,INVALID,119.415,VALID,0.100563,VALID,24.7335,VALID,79,VALID,0,
2010-09-16, 01:01:04,VALID,1004.88,VALID,0,INVALID,124.381,VALID,0,VALID,24.6964,VALID,79,VALID,0,
2010-09-16, 01:02:04,VALID,1004.89,VALID,0,INVALID,127.944,VALID,0.100563,VALID,24.6166,VALID,79,VALID,0,
2010-09-16, 01:03:04,VALID,1004.89,VALID,0,INVALID,129.454,VALID,0,VALID,24.5388,VALID,79,VALID,0,
2010-09-16, 01:04:04,VALID,1004.91,VALID,0,INVALID,130.217,VALID,0,VALID,24.4785,VALID,79,VALID,0,
2010-09-16, 01:05:04,VALID,1004.9,VALID,0,INVALID,130.683,VALID,0.100563,VALID,24.4609,VALID,79,VALID,0,
2010-09-16, 01:06:04,VALID,1004.89,VALID,0,INVALID,130.919,VALID,0.100563,VALID,24.4414,VALID,79,VALID,0,
2010-09-16, 01:07:04,VALID,1004.89,VALID,0,INVALID,131.087,VALID,0,VALID,24.4025,VALID,79,VALID,0,
2010-09-16, 01:08:04,VALID,1004.89,VALID,0,INVALID,131.217,VALID,0,VALID,24.383,VALID,79,VALID,0,
2010-09-16, 01:09:04,VALID,1004.88,VALID,0,INVALID,131.293,VALID,0,VALID,24.3246,VALID,79,VALID,0,
2010-09-16, 01:10:04,VALID,1004.89,VALID,0,INVALID,131.324,VALID,0.100563,VALID,24.3052,VALID,79,VALID,0,
2010-09-16, 01:11:04,VALID,1004.9,VALID,0,INVALID,131.385,VALID,0,VALID,24.2449,VALID,79,VALID,0,
2010-09-16, 01:12:04,VALID,1004.91,VALID,0,INVALID,131.392,VALID,0,VALID,24.2468,VALID,79,VALID,0,
2010-09-16, 01:13:04,VALID,1004.92,VALID,0,INVALID,131.392,VALID,0,VALID,24.2078,VALID,79,VALID,0,
2010-09-16, 01:14:04,VALID,1004.9,VALID,0,INVALID,131.423,VALID,0,VALID,24.1689,VALID,79,VALID,0,
2010-09-16, 01:15:04,VALID,1004.93,VALID,0,INVALID,131.415,VALID,0,VALID,24.1494,VALID,79,VALID,0,
2010-09-16, 01:16:04,VALID,1004.92,VALID,0,INVALID,131.407,VALID,0,VALID,24.13,VALID,79,VALID,0,
2010-09-16, 01:17:04,VALID,1004.92,VALID,0,INVALID,131.4,VALID,0,VALID,24.1105,VALID,79,VALID,0,
2010-09-16, 01:18:04,VALID,1004.96,VALID,0,INVALID,131.369,VALID,0,VALID,24.0716,VALID,79,VALID,0,
2010-09-16, 01:19:04,VALID,1005,VALID,0,INVALID,131.354,VALID,0.100563,VALID,24.0716,VALID,79,VALID,0,
2010-09-16, 01:20:04,VALID,1004.98,VALID,0,INVALID,131.316,VALID,0.100563,VALID,24.0716,VALID,79,VALID,0,
2010-09-16, 01:21:04,VALID,1005.01,VALID,0,INVALID,131.27,VALID,0,VALID,24.0308,VALID,79,VALID,0,
2010-09-16, 01:22:04,VALID,1005.01,VALID,0,INVALID,131.217,VALID,0,VALID,24.0308,VALID,79,VALID,0,
2010-09-16, 01:23:04,VALID,1005.03,VALID,0,INVALID,131.11,VALID,0,VALID,24.0114,VALID,79,VALID,0,
2010-09-16, 01:24:04,VALID,1005.04,VALID,0,INVALID,131.118,VALID,0,VALID,24.0308,VALID,79,VALID,0,
2010-09-16, 01:25:04,VALID,1005.1,VALID,0,INVALID,131.14,VALID,0.100563,VALID,24.0132,VALID,79,VALID,0,
2010-09-16, 01:26:04,VALID,1005.07,VALID,0,INVALID,131.156,VALID,0,VALID,24.0132,VALID,79,VALID,0,
2010-09-16, 01:27:04,VALID,1005.08,VALID,0,INVALID,131.057,VALID,0.100563,VALID,23.9937,VALID,79,VALID,0,
2010-09-16, 01:28:04,VALID,1005.08,VALID,0,INVALID,130.881,VALID,0.100563,VALID,24.0132,VALID,79,VALID,0,
2010-09-16, 01:29:04,VALID,1005.11,VALID,0,INVALID,130.774,VALID,0.100563,VALID,23.9919,VALID,79,VALID,0,
2010-09-16, 01:30:04,VALID,1005.06,VALID,0,INVALID,130.759,VALID,0.100563,VALID,24.0114,VALID,79,VALID,0,
2010-09-16, 01:31:04,VALID,1005.02,VALID,0,INVALID,130.751,VALID,0.100563,VALID,24.0132,VALID,79,VALID,0,
2010-09-16, 01:32:04,VALID,1005.04,VALID,0,INVALID,130.713,VALID,0.100563,VALID,23.9937,VALID,79,VALID,0,
2010-09-16, 01:33:04,VALID,1005.01,VALID,0,INVALID,130.744,VALID,0.100563,VALID,23.9335,VALID,79,VALID,0,
2010-09-16, 01:34:04,VALID,1005.02,VALID,0,INVALID,130.675,VALID,0,VALID,23.9548,VALID,79,VALID,0,
2010-09-16, 01:35:04,VALID,1005.06,VALID,0,INVALID,130.599,VALID,0.100563,VALID,23.9742,VALID,79,VALID,0,
2010-09-16, 01:36:04,VALID,1005.05,VALID,0,INVALID,130.599,VALID,0,VALID,23.9548,VALID,79,VALID,0,
2010-09-16, 01:37:04,VALID,1005.05,VALID,0,INVALID,130.568,VALID,0,VALID,23.9353,VALID,79,VALID,0,
2010-09-16, 01:38:04,VALID,1005.04,VALID,0,INVALID,130.545,VALID,0,VALID,23.9159,VALID,79,VALID,0,
2010-09-16, 01:39:04,VALID,1005.06,VALID,0,INVALID,130.515,VALID,0,VALID,23.9371,VALID,79,VALID,0,
2010-09-16, 01:40:04,VALID,1005.05,VALID,0,INVALID,130.5,VALID,0,VALID,23.9159,VALID,79,VALID,0,
2010-09-16, 01:41:04,VALID,1005.05,VALID,0,INVALID,130.484,VALID,0,VALID,23.9371,VALID,79,VALID,0,
2010-09-16, 01:42:04,VALID,1005.06,VALID,0,INVALID,130.454,VALID,0,VALID,23.8964,VALID,79,VALID,0,
2010-09-16, 01:43:04,VALID,1005.05,VALID,0,INVALID,130.263,VALID,0,VALID,23.8964,VALID,79,VALID,0,
2010-09-16, 01:44:04,VALID,1005.07,VALID,0,INVALID,130.141,VALID,0,VALID,23.9371,VALID,79,VALID,0,
2010-09-16, 01:45:04,VALID,1005.07,VALID,0,INVALID,130.08,VALID,0,VALID,23.9371,VALID,79,VALID,0,
2010-09-16, 01:46:04,VALID,1005.04,VALID,0,INVALID,130.111,VALID,0,VALID,23.8964,VALID,79,VALID,0,
2010-09-16, 01:47:04,VALID,1005.04,VALID,0,INVALID,130.248,VALID,0,VALID,23.8769,VALID,79,VALID,0,
2010-09-16, 01:48:04,VALID,1005.04,VALID,0,INVALID,130.248,VALID,0,VALID,23.838,VALID,79,VALID,0,
2010-09-16, 01:49:04,VALID,1005.03,VALID,0,INVALID,130.187,VALID,0,VALID,23.838,VALID,79,VALID,0,
2010-09-16, 01:50:04,VALID,1005.05,VALID,0,INVALID,130.111,VALID,0,VALID,23.838,VALID,79,VALID,0,
2010-09-16, 01:51:04,VALID,1005.03,VALID,0,INVALID,130.057,VALID,0.100563,VALID,23.838,VALID,79,VALID,0,
2010-09-16, 01:52:04,VALID,1005.05,VALID,0,INVALID,130.011,VALID,0.100563,VALID,23.8167,VALID,79,VALID,0,
2010-09-16, 01:53:04,VALID,1005.02,VALID,0,INVALID,129.95,VALID,0.100563,VALID,23.838,VALID,79,VALID,0,
2010-09-16, 01:54:04,VALID,1005.05,VALID,0,INVALID,129.905,VALID,0.100563,VALID,23.8149,VALID,79,VALID,0,
2010-09-16, 01:55:04,VALID,1005.06,VALID,0,INVALID,129.905,VALID,0.100563,VALID,23.8185,VALID,79,VALID,0,
2010-09-16, 01:56:04,VALID,1005.05,VALID,0,INVALID,129.95,VALID,0,VALID,23.7778,VALID,79,VALID,0,
2010-09-16, 01:57:04,VALID,1005.07,VALID,0,INVALID,129.927,VALID,0.100563,VALID,23.7371,VALID,79,VALID,0,
2010-09-16, 01:58:04,VALID,1005.09,VALID,0,INVALID,130.034,VALID,0.100563,VALID,23.7583,VALID,79,VALID,0,
2010-09-16, 01:59:04,VALID,1005.06,VALID,0,INVALID,129.889,VALID,0.100563,VALID,23.7796,VALID,79,VALID,0,
2010-09-16, 02:00:04,VALID,1005.08,VALID,0,INVALID,129.912,VALID,0.100563,VALID,23.7583,VALID,79,VALID,0,
2010-09-16, 02:01:04,VALID,1005.06,VALID,0,INVALID,129.859,VALID,0.100563,VALID,23.7796,VALID,79,VALID,0,
2010-09-16, 02:02:04,VALID,1005.08,VALID,0,INVALID,129.798,VALID,0.100563,VALID,23.7796,VALID,79,VALID,0,
2010-09-16, 02:03:04,VALID,1005.08,VALID,0,INVALID,129.775,VALID,0.100563,VALID,23.7991,VALID,79,VALID,0,
2010-09-16, 02:04:04,VALID,1005.11,VALID,0,INVALID,129.622,VALID,0.100563,VALID,23.7991,VALID,79,VALID,0,
2010-09-16, 02:05:04,VALID,1005.12,VALID,0,INVALID,129.638,VALID,0,VALID,23.7583,VALID,79,VALID,0,
2010-09-16, 02:06:04,VALID,1005.08,VALID,0,INVALID,129.699,VALID,0,VALID,23.7389,VALID,79,VALID,0,
2010-09-16, 02:07:04,VALID,1005.11,VALID,0,INVALID,129.699,VALID,0,VALID,23.7407,VALID,79,VALID,0,
2010-09-16, 02:08:04,VALID,1005.1,VALID,0,INVALID,129.744,VALID,0,VALID,23.7407,VALID,79,VALID,0,
2010-09-16, 02:09:04,VALID,1005.08,VALID,0,INVALID,129.729,VALID,0,VALID,23.7017,VALID,78,VALID,0,
2010-09-16, 02:10:04,VALID,1005.07,VALID,0,INVALID,129.66,VALID,0,VALID,23.6805,VALID,73,VALID,0,
2010-09-16, 02:11:04,VALID,1005.03,VALID,0,INVALID,129.577,VALID,0,VALID,23.6628,VALID,73,VALID,0,
2010-09-16, 02:12:04,VALID,1005.04,VALID,0,INVALID,129.531,VALID,0,VALID,23.6416,VALID,37,VALID,0,
2010-09-16, 02:13:04,VALID,1005.01,VALID,0,INVALID,129.401,VALID,0,VALID,23.6841,VALID,37,VALID,0,
2010-09-16, 02:14:04,VALID,1005.06,VALID,0,INVALID,129.31,VALID,0,VALID,23.6628,VALID,37,VALID,0,
2010-09-16, 02:15:04,VALID,1005.08,VALID,0,INVALID,129.302,VALID,0,VALID,23.6434,VALID,37,VALID,0,
2010-09-16, 02:16:04,VALID,1005.06,VALID,0,INVALID,129.195,VALID,0,VALID,23.6434,VALID,37,VALID,0,
2010-09-16, 02:17:04,VALID,1005.06,VALID,0,INVALID,129.157,VALID,0,VALID,23.6434,VALID,37,VALID,0,
2010-09-16, 02:18:04,VALID,1005.08,VALID,0,INVALID,129.012,VALID,0,VALID,23.6434,VALID,37,VALID,0,
2010-09-16, 02:19:04,VALID,1005.07,VALID,0,INVALID,128.928,VALID,0,VALID,23.6646,VALID,37,VALID,0,
2010-09-16, 02:20:04,VALID,1005.06,VALID,0,INVALID,128.867,VALID,0,VALID,23.6434,VALID,37,VALID,0,
2010-09-16, 02:21:04,VALID,1005.04,VALID,0,INVALID,128.852,VALID,0,VALID,23.6646,VALID,37,VALID,0,
2010-09-16, 02:22:04,VALID,1005.11,VALID,0,INVALID,128.775,VALID,0,VALID,23.6221,VALID,37,VALID,0,
2010-09-16, 02:23:04,VALID,1005.1,VALID,0,INVALID,128.638,VALID,0,VALID,23.6841,VALID,37,VALID,0,
2010-09-16, 02:24:04,VALID,1005.09,VALID,0,INVALID,128.547,VALID,0,VALID,23.6628,VALID,37,VALID,0,
2010-09-16, 02:25:04,VALID,1005.1,VALID,0,INVALID,128.501,VALID,0,VALID,23.6628,VALID,37,VALID,0,
2010-09-16, 02:26:04,VALID,1005.11,VALID,0,INVALID,128.478,VALID,0,VALID,23.6628,VALID,37,VALID,0,
2010-09-16, 02:27:04,VALID,1005.07,VALID,0,INVALID,128.379,VALID,0,VALID,23.6628,VALID,37,VALID,0,
2010-09-16, 02:28:04,VALID,1005.12,VALID,0,INVALID,128.28,VALID,0,VALID,23.6628,VALID,37,VALID,0,
2010-09-16, 02:29:04,VALID,1005.06,VALID,0,INVALID,128.203,VALID,0,VALID,23.6628,VALID,37,VALID,0.7,
2010-09-16, 02:30:04,VALID,1005.03,VALID,0,INVALID,128.127,VALID,0,VALID,23.6221,VALID,37,VALID,0.612109,
2010-09-16, 02:31:04,VALID,1005.02,VALID,0,INVALID,128.028,VALID,0,VALID,23.6628,VALID,37,VALID,0.509375,
2010-09-16, 02:32:04,VALID,1005.04,VALID,0,INVALID,128.013,VALID,0,VALID,23.6434,VALID,37,VALID,0.345313,
2010-09-16, 02:33:04,VALID,1004.99,VALID,0,INVALID,127.936,VALID,0,VALID,23.6221,VALID,37,VALID,0.355859,
2010-09-16, 02:34:04,VALID,1005.01,VALID,0,INVALID,127.868,VALID,0,VALID,23.6239,VALID,37,VALID,0.145703,
2010-09-16, 02:35:04,VALID,1004.99,VALID,0,INVALID,127.852,VALID,0,VALID,23.6452,VALID,37,VALID,0.219141,
2010-09-16, 02:36:04,VALID,1005,VALID,0,INVALID,127.784,VALID,0,VALID,23.6434,VALID,37,VALID,0,
2010-09-16, 02:37:04,VALID,1004.97,VALID,0,INVALID,127.692,VALID,0,VALID,23.6434,VALID,37,VALID,0,
2010-09-16, 02:38:04,VALID,1005.02,VALID,0,INVALID,127.654,VALID,0,VALID,23.6239,VALID,37,VALID,0,
2010-09-16, 02:39:04,VALID,1004.98,VALID,0,INVALID,127.654,VALID,0,VALID,23.6646,VALID,37,VALID,0,
2010-09-16, 02:40:04,VALID,1004.98,VALID,0,INVALID,127.555,VALID,0,VALID,23.6841,VALID,37,VALID,0,
2010-09-16, 02:41:04,VALID,1005.02,VALID,0,INVALID,127.501,VALID,0,VALID,23.6434,VALID,37,VALID,0,
2010-09-16, 02:42:04,VALID,1004.99,VALID,0,INVALID,127.555,VALID,0,VALID,23.6628,VALID,37,VALID,0,
2010-09-16, 02:43:04,VALID,1005.02,VALID,0,INVALID,127.616,VALID,0,VALID,23.6434,VALID,37,VALID,0,
2010-09-16, 02:44:04,VALID,1005.01,VALID,0,INVALID,127.73,VALID,0,VALID,23.6239,VALID,37,VALID,0.282813,
2010-09-16, 02:45:04,VALID,1005.01,VALID,0,INVALID,127.799,VALID,0,VALID,23.6257,VALID,37,VALID,0.369141,
2010-09-16, 02:46:04,VALID,1004.99,VALID,0,INVALID,127.883,VALID,0,VALID,23.6062,VALID,37,VALID,0.463281,
2010-09-16, 02:47:04,VALID,1004.97,VALID,0,INVALID,127.822,VALID,0,VALID,23.6062,VALID,37,VALID,0.462109,
2010-09-16, 02:48:04,VALID,1004.97,VALID,0,INVALID,127.83,VALID,0,VALID,23.6044,VALID,37,VALID,0.5,
2010-09-16, 02:49:04,VALID,1004.95,VALID,0,INVALID,127.83,VALID,0,VALID,23.585,VALID,37,VALID,0.53125,
2010-09-16, 02:50:04,VALID,1004.94,VALID,0,INVALID,127.814,VALID,0,VALID,23.5655,VALID,37,VALID,0.671094,
2010-09-16, 02:51:04,VALID,1004.96,VALID,0,INVALID,127.791,VALID,0,VALID,23.6062,VALID,37,VALID,0.500781,
2010-09-16, 02:52:04,VALID,1004.93,VALID,0,INVALID,127.768,VALID,0,VALID,23.5655,VALID,37,VALID,0.688281,
2010-09-16, 02:53:04,VALID,1004.89,VALID,0,INVALID,127.784,VALID,0,VALID,23.5655,VALID,37,VALID,0.599219,
2010-09-16, 02:54:04,VALID,1004.9,VALID,0,INVALID,127.738,VALID,0,VALID,23.5655,VALID,36,VALID,0.454688,
2010-09-16, 02:55:04,VALID,1004.9,VALID,0,INVALID,127.761,VALID,0,VALID,23.5868,VALID,36,VALID,0.391016,
2010-09-16, 02:56:04,VALID,1004.9,VALID,0,INVALID,127.738,VALID,0,VALID,23.546,VALID,36,VALID,0.373047,
2010-09-16, 02:57:04,VALID,1004.86,VALID,0,INVALID,127.654,VALID,0,VALID,23.5655,VALID,36,VALID,0.296094,
2010-09-16, 02:58:04,VALID,1004.89,VALID,0,INVALID,127.593,VALID,0,VALID,23.5655,VALID,36,VALID,0.335547,
2010-09-16, 02:59:04,VALID,1004.88,VALID,0,INVALID,127.555,VALID,0,VALID,23.5655,VALID,36,VALID,0.362891,
2010-09-16, 03:00:04,VALID,1004.87,VALID,0,INVALID,127.532,VALID,0,VALID,23.5655,VALID,36,VALID,0.372656,
2010-09-16, 03:01:04,VALID,1004.88,VALID,0,INVALID,127.563,VALID,0,VALID,23.5248,VALID,36,VALID,0.321875,
2010-09-16, 03:02:04,VALID,1004.88,VALID,0,INVALID,127.524,VALID,0,VALID,23.546,VALID,36,VALID,0.335547,
2010-09-16, 03:03:04,VALID,1004.88,VALID,0,INVALID,127.433,VALID,0,VALID,23.5443,VALID,36,VALID,0.384766,
2010-09-16, 03:04:04,VALID,1004.89,VALID,0,INVALID,127.456,VALID,0,VALID,23.5655,VALID,36,VALID,0.401563,
2010-09-16, 03:05:04,VALID,1004.89,VALID,0,INVALID,127.486,VALID,0,VALID,23.5655,VALID,36,VALID,0.318359,
2010-09-16, 03:06:04,VALID,1004.92,VALID,0,INVALID,127.501,VALID,0,VALID,23.546,VALID,36,VALID,0.273438,
2010-09-16, 03:07:04,VALID,1004.91,VALID,0,INVALID,127.57,VALID,0,VALID,23.546,VALID,36,VALID,0.279687,
2010-09-16, 03:08:04,VALID,1004.92,VALID,0,INVALID,127.624,VALID,0,VALID,23.5071,VALID,36,VALID,0.451953,
2010-09-16, 03:09:04,VALID,1004.89,VALID,0,INVALID,127.631,VALID,0,VALID,23.5478,VALID,36,VALID,0.297266,
2010-09-16, 03:10:04,VALID,1004.86,VALID,0,INVALID,127.448,VALID,0,VALID,23.585,VALID,36,VALID,0.378906,
2010-09-16, 03:11:04,VALID,1004.9,VALID,0,INVALID,127.379,VALID,0,VALID,23.585,VALID,36,VALID,0.388672,
2010-09-16, 03:12:04,VALID,1004.91,VALID,0,INVALID,127.44,VALID,0,VALID,23.585,VALID,36,VALID,0.336719,
2010-09-16, 03:13:04,VALID,1004.9,VALID,0,INVALID,127.44,VALID,0,VALID,23.6044,VALID,36,VALID,0.15,
2010-09-16, 03:14:04,VALID,1004.89,VALID,0,INVALID,127.318,VALID,0,VALID,23.6434,VALID,36,VALID,0.203516,
2010-09-16, 03:15:04,VALID,1004.89,VALID,0,INVALID,127.212,VALID,0,VALID,23.6823,VALID,36,VALID,0.239063,
2010-09-16, 03:16:04,VALID,1004.87,VALID,0,INVALID,126.967,VALID,0,VALID,23.7407,VALID,37,VALID,0.325781,
2010-09-16, 03:17:04,VALID,1004.89,VALID,0,INVALID,126.853,VALID,0,VALID,23.7796,VALID,37,VALID,0.442578,
2010-09-16, 03:18:04,VALID,1004.86,VALID,0,INVALID,126.823,VALID,0,VALID,23.8185,VALID,37,VALID,0.48125,
2010-09-16, 03:19:04,VALID,1004.86,VALID,0,INVALID,126.8,VALID,0,VALID,23.838,VALID,37,VALID,0.475,
2010-09-16, 03:20:04,VALID,1004.89,VALID,0,INVALID,126.693,VALID,0,VALID,23.8575,VALID,37,VALID,0.534766,
2010-09-16, 03:21:04,VALID,1004.87,VALID,0,INVALID,126.792,VALID,0.100563,VALID,23.8575,VALID,37,VALID,0.610937,
2010-09-16, 03:22:04,VALID,1004.89,VALID,0,INVALID,127.006,VALID,0,VALID,23.8575,VALID,37,VALID,0.538281,
2010-09-16, 03:23:04,VALID,1004.86,VALID,0,INVALID,127.234,VALID,0,VALID,23.7991,VALID,37,VALID,0.483984,
2010-09-16, 03:24:04,VALID,1004.89,VALID,0,INVALID,127.463,VALID,0,VALID,23.7796,VALID,37,VALID,0.417188,
2010-09-16, 03:25:04,VALID,1004.87,VALID,0,INVALID,127.509,VALID,0,VALID,23.7796,VALID,37,VALID,0.323047,
2010-09-16, 03:26:04,VALID,1004.9,VALID,0,INVALID,127.677,VALID,0,VALID,23.7601,VALID,37,VALID,0.273047,
2010-09-16, 03:27:04,VALID,1004.92,VALID,0,INVALID,127.822,VALID,0,VALID,23.7407,VALID,37,VALID,0.199609,
2010-09-16, 03:28:04,VALID,1004.92,VALID,0,INVALID,127.997,VALID,0,VALID,23.7212,VALID,37,VALID,0.29375,
2010-09-16, 03:29:04,VALID,1004.9,VALID,0,INVALID,128.058,VALID,0,VALID,23.7212,VALID,37,VALID,0.185156,
2010-09-16, 03:30:04,VALID,1004.9,VALID,0,INVALID,128.287,VALID,0,VALID,23.7,VALID,37,VALID,0.364453,
2010-09-16, 03:31:04,VALID,1004.91,VALID,0,INVALID,128.379,VALID,0,VALID,23.6823,VALID,37,VALID,0,
2010-09-16, 03:32:04,VALID,1004.9,VALID,0,INVALID,128.516,VALID,0,VALID,23.6841,VALID,37,VALID,0.00429688,
2010-09-16, 03:33:04,VALID,1004.9,VALID,0,INVALID,128.57,VALID,0,VALID,23.6628,VALID,37,VALID,0,
2010-09-16, 03:34:04,VALID,1004.85,VALID,0,INVALID,128.562,VALID,0,VALID,23.6628,VALID,37,VALID,0,
2010-09-16, 03:35:04,VALID,1004.86,VALID,0,INVALID,128.539,VALID,0,VALID,23.6823,VALID,37,VALID,0,
2010-09-16, 03:36:04,VALID,1004.84,VALID,0,INVALID,128.425,VALID,0,VALID,23.7017,VALID,37,VALID,0.249609,
2010-09-16, 03:37:04,VALID,1004.83,VALID,0,INVALID,128.295,VALID,0,VALID,23.7212,VALID,37,VALID,0.458984,
2010-09-16, 03:38:04,VALID,1004.82,VALID,0,INVALID,128.241,VALID,0,VALID,23.7407,VALID,37,VALID,0.482031,
2010-09-16, 03:39:04,VALID,1004.77,VALID,0,INVALID,128.219,VALID,0,VALID,23.7601,VALID,37,VALID,0.609766,
2010-09-16, 03:40:04,VALID,1004.77,VALID,0,INVALID,128.31,VALID,0,VALID,23.7407,VALID,37,VALID,0.407031,
2010-09-16, 03:41:04,VALID,1004.79,VALID,0,INVALID,128.341,VALID,0,VALID,23.7407,VALID,37,VALID,0.355469,
2010-09-16, 03:42:04,VALID,1004.76,VALID,0,INVALID,128.486,VALID,0,VALID,23.7407,VALID,37,VALID,0.193359,
2010-09-16, 03:43:04,VALID,1004.73,VALID,0,INVALID,128.554,VALID,0,VALID,23.7425,VALID,37,VALID,0.133984,
2010-09-16, 03:44:04,VALID,1004.74,VALID,0,INVALID,128.592,VALID,0,VALID,23.7601,VALID,37,VALID,0.184766,
2010-09-16, 03:45:04,VALID,1004.74,VALID,0,INVALID,128.6,VALID,0,VALID,23.7601,VALID,37,VALID,0,
2010-09-16, 03:46:04,VALID,1004.71,VALID,0,INVALID,128.585,VALID,0,VALID,23.7814,VALID,37,VALID,0,
2010-09-16, 03:47:04,VALID,1004.7,VALID,0,INVALID,128.57,VALID,0,VALID,23.7796,VALID,37,VALID,0,
2010-09-16, 03:48:04,VALID,1004.69,VALID,0,INVALID,128.57,VALID,0,VALID,23.7796,VALID,37,VALID,0,
2010-09-16, 03:49:04,VALID,1004.69,VALID,0,INVALID,128.6,VALID,0,VALID,23.8203,VALID,35,VALID,0,